Other Public Products
Issued by NWS Grand Forks, ND

Home | Current Version | Previous Version | Text Only | Print | Product List | Glossary Off
Versions: 1 2 3 4 5 6 7 8 9 10 11 12 13 14 15 16 17 18 19 20 21 22 23 24 25 26 27 28 29 30 31 32 33 34 35 36 37 38 39 40 41 42 43 44 45 46 47 48 49 50

000
FPUS83 KFGF 010010
OPUFGF
PRAIRIE TO PINES WEATHER ROUNDUP
NATIONAL WEATHER SERVICE EASTERN NORTH DAKOTA/GRAND FORKS ND
700 PM CDT MON AUG 31 2015

 **SATELLITE DATA USED TO AUGMENT SKY COVER AT AUTOMATED STATIONS**
 *****  WEATHER ACROSS EASTERN NORTH DAKOTA  *****

CITY           SKY/WX    TMP DP  RH WIND       PRES   REMARKS
GRAND FORKS    CLOUDY    75  58  55 SW7       29.81R
6HR MIN TEMP:  75; 6HR MAX TEMP:  82;

GRAND FORKS AF CLOUDY    73  61  65 SW5       29.82R
GRAND CITY NWS   N/A     75 N/A N/A W1          N/A
BUXTON         NOT AVBL
DEVILS LAKE    MOSUNNY   77  43  29 W12       29.82R
6HR MIN TEMP:  73; 6HR MAX TEMP:  79;

FARGO          CLOUDY    81  65  58 S3        29.82S
6HR MIN TEMP:  79; 6HR MAX TEMP:  82;

WAHPETON ARPT  CLOUDY    77  64  65 N6        29.84F
$$

 *****  WEATHER ACROSS CENTRAL AND WESTERN NORTH DAKOTA  *****

CITY           SKY/WX    TMP DP  RH WIND       PRES   REMARKS
JAMESTOWN      CLOUDY    74  55  51 SW3       29.86S
6HR MIN TEMP:  74; 6HR MAX TEMP:  78;

BISMARCK       MOSUNNY   81  43  26 W8        29.87S
6HR MIN TEMP:  76; 6HR MAX TEMP:  84;

MINOT          SUNNY     76  37  24 W12       29.83R
6HR MIN TEMP:  74; 6HR MAX TEMP:  78;

MINOT AFB      SUNNY     79  40  24 W10       29.81S
6HR MIN TEMP:  74; 6HR MAX TEMP:  81;

GARRISON         N/A     76  43  30 W12       29.87R
6HR MIN TEMP:  73; 6HR MAX TEMP:  78;

WILLISTON      SUNNY     76  34  21 W10       29.84S
6HR MIN TEMP:  74; 6HR MAX TEMP:  80;

DICKINSON      SUNNY     77  40  26 W12       29.89R
6HR MIN TEMP:  73; 6HR MAX TEMP:  79;

HETTINGER      SUNNY     79  41  25 CALM      29.92S
6HR MIN TEMP:  74; 6HR MAX TEMP:  81;

$$

 *****  OTHER OBSERVATIONS NORTHEAST NORTH DAKOTA  *****

CITY           SKY/WX    TMP DP  RH WIND       PRES   REMARKS
WALHALLA       FAIR      77  45  31 MISG      29.77S
LANGDON        FAIR      77  41  27 W16G23    29.82R
CAVALIER       FAIR      77  46  33 W9        29.77S
GRAFTON        FAIR      79  52  38 W13G20    29.80R
CANDO          NOT AVBL
FORT TOTTEN      N/A     78  46  31 NW5       29.95S
ROLLA          FAIR      72  43  35 W10       29.83R
RUGBY          FAIR      75  43  31 W12       29.83R
 ***** THE ABOVE OBSERVATIONS ARE NON NWS ARE NOT QUALITY
        CONTROLLED AND MAY MIS-REPORT RAIN FOR SNOW...
$$

 *****  OTHER OBSERVATIONS SOUTHEAST NORTH DAKOTA *****

CITY           SKY/WX    TMP DP  RH WIND       PRES   REMARKS
COOPERSTOWN    NOT AVBL
VALLEY CITY    FAIR      73  59  60 NW6       29.86S
OAKES            N/A     77  75  94 CALM      29.86S
GWINNER        FAIR      75  70  83 W5        29.85F
SHEYENNE NWR     N/A     77  67  71 CALM      29.95
BUFFALO        NOT AVBL
WYNDMERE         N/A     75  70  83 N1          N/A
 ***** THE ABOVE OBSERVATIONS ARE NON NWS ARE NOT QUALITY
       CONTROLLED AND MAY MIS-REPORT RAIN FOR SNOW...
$$

  *****  WEATHER ACROSS NORTHERN MINNESOTA  *****

CITY           SKY/WX    TMP DP  RH WIND       PRES   REMARKS
FLAG ISLAND    MOCLDY    72  64  78 S6        29.76S
WARROAD        CLOUDY    73  66  78 S5        29.80R
ROSEAU         CLOUDY    75  66  73 S3        29.79S
HALLOCK        PTSUNNY   79  50  36 SW13      29.77R
THF RVR FALLS  CLOUDY   N/A N/A N/A SW6       29.81S
HALSTAD        NOT AVBL
FOSSTON        CLOUDY    73  63  68 S3        29.84S
BAUDETTE       CLOUDY    71  66  84 SW5       29.80R
6HR MIN TEMP:  71; 6HR MAX TEMP:  79;

WASKISH        MOCLDY    70  66  88 SW6       29.82R
CROOKSTON      CLOUDY    77  61  57 NW9       29.82R
$$
  *****  WEATHER ACROSS CENTRAL AND WEST MINNESOTA  *****

CITY           SKY/WX    TMP DP  RH WIND       PRES   REMARKS
BEMIDJI        CLOUDY    74  67  77 W3        29.84S
PARK RAPIDS    MOCLDY    78  66  66 W5        29.85R
6HR MIN TEMP:  78; 6HR MAX TEMP:  86;

WADENA         PTCLDY    77  66  69 W6        29.85R
DETROIT LAKES  CLOUDY    73  64  73 CALM      29.86F
MOORHEAD       CLOUDY    75  66  73 CALM      29.84S
FERGUS FALLS   PTSUNNY   75  66  73 NW5       29.84R
ELBOW LAKE     FAIR      75  67  74 NW6       29.85R
6HR MIN TEMP:  75; 6HR MAX TEMP:  84;

MORRIS MN      MOSUNNY   79  66  65 NW8       29.84R
STAPLES        PTCLDY    79  66  65 S7        29.84S
WHEATON        PTSUNNY   75  66  73 W5        29.85F
$$
  *****  WEATHER ELSEWHERE ACROSS MINNESOTA  *****

CITY           SKY/WX    TMP DP  RH WIND       PRES   REMARKS
DULUTH         PTCLDY    77  68  73 SW12      29.87R
6HR MIN TEMP:  77; 6HR MAX TEMP:  81;

INTRNTL FALLS  MOCLDY    72  66  81 W7        29.80R
6HR MIN TEMP:  72; 6HR MAX TEMP:  82;

ELY            PTCLDY    77  64  65 SW9       29.83S
CLOQUET        CLEAR     79  66  65 S8        29.87S
BRAINERD       MOCLDY    79  68  69 S9        29.85R
6HR MIN TEMP:  79; 6HR MAX TEMP:  84;

HIBBING        PTCLDY    78  66  66 S8G18     29.84R
6HR MIN TEMP:  78; 6HR MAX TEMP:  84;

ALEXANDRIA     PTCLDY    81  68  64 SW9       29.86S
6HR MIN TEMP:  80; 6HR MAX TEMP:  84;

SAINT CLOUD    CLEAR     79  69  71 S8        29.86S
6HR MIN TEMP:  79; 6HR MAX TEMP:  83;

MINNEAPOLIS    PTCLDY    83  69  62 S12       29.89R
6HR MIN TEMP:  81; 6HR MAX TEMP:  86;

$$

  *****  WEATHER ACROSS SOUTH DAKOTA  *****

CITY           SKY/WX    TMP DP  RH WIND       PRES   REMARKS
SIOUX FALLS    MOSUNNY   81  69  67 S12       29.86F
6HR MIN TEMP:  78; 6HR MAX TEMP:  83;

BROOKINGS      SUNNY     81  70  69 S7        29.88F
WATERTOWN      MOSUNNY   79  66  64 N6        29.86F
6HR MIN TEMP:  77; 6HR MAX TEMP:  85;

HURON          PTSUNNY   76  67  73 N5        29.85R HAZE
6HR MIN TEMP:  76; 6HR MAX TEMP:  88;

SISSETON         N/A     76  66  71 N5        29.83F
ABERDEEN       PTSUNNY   76  64  66 N6        29.85F
6HR MIN TEMP:  76; 6HR MAX TEMP:  80;

MITCHELL       MOSUNNY   78  69  73 N5        29.85F
PIERRE         PTSUNNY   76  62  62 NE3       29.88S
6HR MIN TEMP:  71; 6HR MAX TEMP:  78; 6HR PCP: TRACE;

MOBRIDGE       CLOUDY    79  57  46 N5        29.87R
RAPID CITY     PTSUNNY   71  59  65 SE6       29.95F
6HR MIN TEMP:  69; 6HR MAX TEMP:  75;

$$

  *****  SOME WEATHER IN NEARBY STATES *****

CITY           SKY/WX    TMP DP  RH WIND       PRES   REMARKS
GLASGOW MT     SUNNY     74  38  27 SW10      29.83F
6HR MIN TEMP:  69; 6HR MAX TEMP:  75;

GREAT FALLS MT SUNNY     76  35  22 SW20G29   29.87F
6HR MIN TEMP:  68; 6HR MAX TEMP:  77;

CHEYENNE WY    CLOUDY    63  50  62 NW14G23   30.17F
6HR MIN TEMP:  63; 6HR MAX TEMP:  84; 6HR PCP: TRACE;

SCOTTSBLUFF NE PTSUNNY   80  54  40 SE8       29.99R
6HR MIN TEMP:  80; 6HR MAX TEMP:  88;

OMAHA NE       MOSUNNY   84  66  54 S13       29.90F
6HR MIN TEMP:  81; 6HR MAX TEMP:  86;

DES MOINES IA  PTCLDY    84  72  67 S6        29.92F
6HR MIN TEMP:  84; 6HR MAX TEMP:  88;

DAVENPORT IA   CLEAR     82  72  71 S5        29.98F
6HR MIN TEMP:  82; 6HR MAX TEMP:  87;

CHICAGO IL     PTCLDY    82  68  62 CALM      30.01S
6HR MIN TEMP:  82; 6HR MAX TEMP:  85;

EAU CLAIRE WI  CLEAR     80  70  71 S9        29.92S
6HR MIN TEMP:  74; 6HR MAX TEMP:  82;

LA CROSSE WI   CLEAR     81  70  69 SE9       29.93F
6HR MIN TEMP:  80; 6HR MAX TEMP:  85;

$$

  *****  SOME NATIONAL WEATHER *****

CITY           SKY/WX    TMP DP  RH WIND       PRES   REMARKS
LA GUARDIA NY  MOCLDY    88  63  43 W10       29.95R



USA.gov is the U.S. government's official web portal to all federal, state and local government web resources and services.